User: anonymous   Login
Location: Unspecified
(0.0000°N, 0.0000°E)
Time: 10:05:50
(UTC+00:00)
Language:

PAKSAT MM1R - Orbit

View from above orbital plane
View from above orbital plane
View from above satellite
View from above satellite

Ground track
Ground track

The orbit is defined by the following mean orbital elements,

1 59915U          26145.59135514 +.00000000 +00000-0 +00000-0 0 00003
2 59915   0.0332  97.3237 0001515 317.3637  79.6061  1.00276008    05
Epoch (UTC): 25 May 2026 14:11:33
Eccentricity: 0.0001515
inclination: 0.0332°
perigee height: 35779 km
apogee height: 35792 km
right ascension of ascending node: 97.3237°
argument of perigee: 317.3637°
revolutions per day: 1.00276008
mean anomaly at epoch: 79.6061°

The dashed part of the orbit path shows where the satellite is in the earth's shadow,  

DLR